HST 1 20580U 90037B 26167.16527473 .00005381 00000+0 16841-3 0 9990 2 20580 28.4719 87.5586 0001852 131.7056 228.3698 15.30736864788415 POLAR 1 23802U 96013A 26166.49652623 .00000145 00000+0 00000+0 0 9990 2 23802 79.8518 227.0721 6468762 209.1369 89.7315 1.29846135144837 SWAS 1 25560U 98071A 26167.28683070 .00002559 00000+0 16517-3 0 9992 2 25560 69.8951 229.8413 0008674 260.9858 99.0325 15.09622305497135 CXO 1 25867U 99040B 26169.37713324 .00000529 00000+0 00000+0 0 9998 2 25867 56.2189 116.5542 7835469 310.3049 0.1821 0.37804062 17322 XMM-NEWTON 1 25989U 99066A 26169.34668136 -.00000002 00000+0 00000+0 0 9995 2 25989 64.4794 282.9700 4673195 64.9038 0.0897 0.50127427 23010 TERRA 1 25994U 99068A 26167.26488625 .00000320 00000+0 74040-4 0 9997 2 25994 97.9457 216.8477 0001510 192.7850 231.8615 14.61102450409470 CLUSTER II-FM7 (SAMBA) 1 26410U 00041A 26168.13893488 .00013373 00000+0 00000+0 0 9990 2 26410 149.9159 50.9864 9054007 268.1291 359.6411 0.44868040 20307 CLUSTER II-FM8 (TANGO) 1 26464U 00045B 26166.18659913 .00011723 00000+0 00000+0 0 9996 2 26464 150.1471 51.6871 9056658 268.6526 2.8141 0.44404213 20308 ODIN 1 26702U 01007A 26167.07828886 .00158692 00000+0 10319-2 0 9990 2 26702 97.3827 207.9489 0006782 144.4595 215.7123 15.75459520389227 TIMED 1 26998U 01055B 26167.27221961 .00000911 00000+0 86284-4 0 9999 2 26998 74.0674 236.8607 0001067 336.9086 23.2050 14.95293318330682 CORIOLIS 1 27640U 03001A 26167.28113534 .00000077 00000+0 56838-4 0 9999 2 27640 98.7125 174.1797 0013315 211.5347 148.5033 14.19944562214090 SORCE 1 27651U 03004A 26167.01051746 .00002317 00000+0 17651-3 0 9999 2 27651 39.9909 268.3919 0016609 40.1651 320.0368 15.03708358271720 MOST 1 27843U 03031D 26167.29612756 .00000043 00000+0 39693-4 0 9991 2 27843 98.7044 175.0346 0008721 253.2998 106.7222 14.21322304190585 SCISAT 1 1 27858U 03036A 26167.28022064 .00000405 00000+0 56414-4 0 9990 2 27858 73.9285 173.1449 0008568 242.8582 117.1721 14.81446810231310 SWIFT 1 28485U 04047A 26166.40597521 .00042527 00000+0 35480-3 0 9998 2 28485 20.5516 198.6409 0001619 255.9834 104.0432 15.68175033186589 HINODE (SOLAR-B) 1 29479U 06041A 26167.29965752 .00000573 00000+0 10686-3 0 9997 2 29479 98.0548 183.4654 0016043 292.8660 67.0851 14.68622046 54741 SHIJIAN-6 02A (SJ-6 02A) 1 29505U 06046A 26167.30001997 .00004277 00000+0 22035-3 0 9992 2 29505 97.6357 208.3592 0004374 126.3776 233.7861 15.16934207 72130 SHIJIAN-6 02B (SJ-6 02B) 1 29506U 06046B 26167.34662944 .00001345 00000+0 10882-3 0 9992 2 29506 97.7156 196.4105 0015336 62.8561 297.4225 15.01376257 70613 FGRST (GLAST) 1 33053U 08029A 26166.52614450 .00002502 00000+0 87010-4 0 9999 2 33053 25.5806 216.0172 0007642 308.9336 51.0521 15.23940833995580 SDO 1 36395U 10005A 26167.20324522 -.00000097 00000+0 00000+0 0 9999 2 36395 34.6501 86.3565 0001763 46.4520 102.7529 1.00269936 60051 CRYOSAT 2 1 36508U 10013A 26167.32338601 .00000190 00000+0 46477-4 0 9996 2 36508 92.0354 277.0915 0002155 89.1957 270.9497 14.51898891857956 X-SAT 1 37389U 11015C 26167.24265060 .00000049 00000+0 38421-4 0 9999 2 37389 98.3503 144.3111 0013989 351.3500 8.7438 14.25206196787549 GCOM-W1 (SHIZUKU) 1 38337U 12025A 26167.28896080 .00000389 00000+0 96284-4 0 9999 2 38337 98.2021 107.8582 0001795 75.6819 45.9494 14.57123952748909 NUSTAR 1 38358U 12031A 26167.33335648 .00010251 00000+0 57913-3 0 9997 2 38358 6.0287 40.5388 0006336 97.8047 20.2221 15.08797194 1307 NEOSSAT 1 39089U 13009D 26167.23390362 .00000118 00000+0 55465-4 0 9990 2 39089 98.4176 347.2892 0009873 246.9525 113.0621 14.35826104696606 BRITE-AUSTRIA 1 39091U 13009F 26167.09370097 .00000142 00000+0 62862-4 0 9996 2 39091 98.3994 346.5565 0009106 240.1939 119.8342 14.36541737696891 IRIS 1 39197U 13033A 26167.28944845 .00000847 00000+0 10321-3 0 9993 2 39197 97.9329 6.5693 0023611 324.8887 35.0770 14.85883837700242 HISAKI (SPRINT-A) 1 39253U 13049A 26166.87673529 .00000124 00000+0 82855-4 0 9995 2 39253 29.7186 226.6759 0136868 6.2272 353.9971 13.55544631631245 CASSIOPE 1 39265U 13055A 26167.24355660 .00043153 -53365-6 47165-3 0 9993 2 39265 80.9153 67.8681 0292985 65.6006 297.5500 15.25108908667520 STSAT-3 1 39422U 13066G 26167.24716207 .00002866 00000+0 21864-3 0 9992 2 39422 97.6219 137.1504 0011179 47.5472 312.6697 15.02753651684068 SWARM B 1 39451U 13067A 26167.28277326 .00002845 00000+0 10124-3 0 9997 2 39451 87.7435 342.5914 0003300 85.9501 274.2125 15.28546487683101 SWARM A 1 39452U 13067B 26167.25183011 .00008702 00000+0 14958-3 0 9999 2 39452 87.3326 56.5896 0003008 95.0343 265.1261 15.50938708706101 SWARM C 1 39453U 13067C 26167.25171608 .00008639 00000+0 14850-3 0 9999 2 39453 87.3326 55.1707 0002983 94.6519 265.5083 15.50937117706063 BRITE-CA1 (TORONTO) 1 40020U 14033L 26167.29039437 .00000607 00000+0 99119-4 0 9991 2 40020 97.9738 296.2348 0077229 279.9438 79.3059 14.72675645642084 OCO 2 1 40059U 14035A 26167.26277728 .00000334 00000+0 84200-4 0 9991 2 40059 98.2018 108.5699 0001501 85.5349 274.6021 14.57110606635914 BRITE-PL2 (HEWELIUSZ) 1 40119U 14049B 26167.30201463 .00001445 00000+0 13881-3 0 9991 2 40119 97.9097 279.2951 0015250 111.1081 249.1771 14.94590679641319 MMS 1 1 40482U 15011A 26167.33335648 -.00000732 00000+0 00000+0 0 9994 2 40482 72.1777 348.7729 8321562 167.4209 211.3137 0.28354967 1370 MMS 2 1 40483U 15011B 26167.33335648 -.00000732 00000+0 00000+0 0 9995 2 40483 72.1778 348.7751 8322347 167.4265 211.3023 0.28354988 1378 MMS 3 1 40484U 15011C 26167.33335648 -.00000732 00000+0 00000+0 0 9996 2 40484 72.1770 348.7754 8321139 167.4288 211.2864 0.28354939 1375 MMS 4 1 40485U 15011D 26167.33335648 -.00000732 00000+0 00000+0 0 9997 2 40485 72.1770 348.7754 8321139 167.4288 211.2864 0.28354939 1376 ASTROSAT 1 40930U 15052A 26166.54418907 .00001433 00000+0 92749-4 0 9993 2 40930 5.9956 167.1769 0007813 7.2508 352.7733 14.82504818579585 DAMPE 1 41173U 15078A 26167.25325515 .00001483 00000+0 52344-4 0 9994 2 41173 97.4550 172.7157 0013833 80.1533 280.1269 15.30784778584405 PISAT 1 41784U 16059B 26167.25850854 .00000726 00000+0 13129-3 0 9997 2 41784 97.8179 167.7512 0028302 205.8139 154.1656 14.68982128519607 HXMT (HUIYAN) 1 42758U 17034A 26167.34500789 .00002371 00000+0 12332-3 0 9995 2 42758 43.0125 187.7306 0030496 141.6446 218.6578 15.18473601497534 FLYING LAPTOP 1 42831U 17042G 26167.31897397 .00002299 00000+0 18322-3 0 9991 2 42831 97.4680 322.8843 0019538 124.5322 235.7751 15.01139426486324 ZHANGHENG 1-01 (CSES-1) 1 43194U 18015C 26167.28363714 .00005669 00000+0 25953-3 0 9994 2 43194 97.6867 332.9228 0017042 269.8336 90.0946 15.20800911464500 SALSAT 1 46495U 20068K 26166.96813813 .00006820 00000+0 23912-3 0 9999 2 46495 97.8844 169.9584 0008114 313.3675 46.6887 15.29785416315178 IXPE 1 49954U 21121A 26167.33335648 .00009700 00000+0 52030-3 0 9993 2 49954 0.2315 324.4037 0007208 62.2268 276.7763 15.10245673 5434 SMILE 1 69123U 26109A 26144.65318427 -.00001976 00000+0 -42379-3 0 9994 2 69123 70.0007 229.2745 0009123 259.5159 100.4951 14.57062785 802